Location: ????????
(60.5616°N, 46.8254°E)
Time: 04:21:41
(UTC+00:00)

Resurs 1-4 Rocket - Pass Details

Date: 18 February 2020
Orbit: 800 x 814 km, 98.6° (Epoch: 02 April)

Event Time Altitude Azimuth Distance (km) Brightness Sun altitude
Rises 21:54:16 0° 19° (NNE) 3,352 6.2 -40.2°
Reaches altitude 10° 21:56:50 10° 29° (NNE) 2,417 5.2 -40.1°
Enters shadow 21:58:39 20° 42° (NE) 1,834 4.4 -40.1°
